This is the latest recevied weather packets stored in our database for station/object K4KMJ. If no packets are shown the sender has not sent any weather packets the latest 10 day(s).
| Time | Temp. | Humidity | Pressure | Rain* | Wind** | Luminosity | Snow |
|---|---|---|---|---|---|---|---|
| 1777994365 | 25.56° C | 68% | 1018.7 hPa | 0 mm | - | 830 W/m² | - |
| 1777994056 | 26.11° C | 68% | 1018.7 hPa | 0 mm | - | 251 W/m² | - |
| 1777993754 | 26.11° C | 68% | 1018.7 hPa | 0 mm | - | 824 W/m² | - |
| 1777993450 | 26.11° C | 69% | 1018.9 hPa | 0 mm | - | 240 W/m² | - |
| 1777993145 | 25.56° C | 69% | 1018.8 hPa | 0 mm | - | 787 W/m² | - |
| 1777992843 | 26.11° C | 68% | 1018.7 hPa | 0 mm | - | 764 W/m² | - |
| 1777992540 | 26.11° C | 69% | 1018.4 hPa | 0 mm | - | 733 W/m² | - |
| 1777992239 | 25.56° C | 70% | 1018.7 hPa | 0 mm | - | 713 W/m² | - |
| 1777991935 | 25.56° C | 72% | 1018.5 hPa | 0 mm | - | 697 W/m² | - |
| 1777991633 | 25.56° C | 73% | 1018.8 hPa | 0 mm | - | 685 W/m² | - |
| 1777991330 | 25.56° C | 73% | 1018.4 hPa | 0 mm | - | 654 W/m² | - |
| 1777991027 | 25.56° C | 76% | 1018.4 hPa | 0 mm | - | 636 W/m² | - |
| 1777990724 | 25° C | 77% | 1018.2 hPa | 0 mm | - | 612 W/m² | - |
| 1777990422 | 25° C | 78% | 1018.4 hPa | 0 mm | - | 371 W/m² | - |
| 1777989814 | 24.44° C | 80% | 1018.3 hPa | 0 mm | - | 595 W/m² | - |
| 1777989512 | 24.44° C | 80% | 1018.5 hPa | 0 mm | - | 180 W/m² | - |
| 1777989202 | 24.44° C | 80% | 1018.4 hPa | 0 mm | - | 557 W/m² | - |
| 1777988899 | 24.44° C | 81% | 1018.6 hPa | 0 mm | - | 555 W/m² | - |
| 1777988596 | 24.44° C | 81% | 1018.4 hPa | 0 mm | - | 527 W/m² | - |
| 1777988292 | 24.44° C | 81% | 1018.6 hPa | 0 mm | - | 517 W/m² | - |
| 1777987989 | 24.44° C | 82% | 1018.3 hPa | 0 mm | - | 475 W/m² | - |
| 1777987685 | 24.44° C | 82% | 1018.7 hPa | 0 mm | - | 525 W/m² | - |
| 1777987382 | 23.89° C | 83% | 1018.5 hPa | 0 mm | - | 459 W/m² | - |
| 1777987079 | 23.89° C | 83% | 1018.6 hPa | 0 mm | - | 457 W/m² | - |
| 1777986776 | 23.33° C | 84% | 1018.7 hPa | 0 mm | - | 208 W/m² | - |
* Rain latest hour (hover to see other rain measurements)
** Current wind speed in m/s (hover to see current wind gust speed)